FW4185 Weather Reports


Display with metric or nautical units.
time (UTC)temp
F
wind
direction
speed
MPH
gust
MPH
rain 1hr
in
rain 24hr
in
rain mn
in
humidity
%
barometer
mb
20260905032109 0 353 0.0 0.0 0.00 0.00 0.00
20260905031313 71 356 0.0 0.0 0.00 0.00 0.00 68 1013.8
20260905030632 0 352 0.0 0.0 0.00 0.00 0.00
20260905025809 72 358 0.0 0.0 0.00 0.00 0.00 70 1013.7
20260905025130 0 354 0.0 0.0 0.00 0.00 0.00
20260905024228 72 356 0.0 0.0 0.00 0.00 0.00 70 1013.8
20260905023548 72 356 0.0 0.0 0.00 0.00 0.00 70 1013.8
20260905022909 72 358 0.0 0.0 0.00 0.00 0.00 69 1013.8
20260905022229 72 357 0.0 0.0 0.00 0.00 0.00 69 1013.8
20260905021551 72 356 0.0 0.0 0.00 0.00 0.00 69 1013.8
20260905020909 0 356 0.0 0.0 0.00 0.00 0.00
20260905020010 73 357 0.0 0.0 0.00 0.00 0.00 69 1013.9
20260905015332 72 356 0.0 0.0 0.00 0.00 0.00 70 1013.9
20260905014652 0 356 0.0 0.0 0.00 0.00 0.00
20260905013748 72 354 0.0 0.0 0.00 0.00 0.00 70 1013.9
20260905013113 72 360 0.0 0.0 0.00 0.00 0.00 69 1013.9
20260905012428 0 357 0.0 0.0 0.00 0.00 0.00
20260905011608 72 354 0.0 0.0 0.00 0.00 0.00 70 1013.9
20260905010928 72 354 0.0 0.0 0.00 0.00 0.00 71 1014.0
20260905010248 72 356 0.0 0.0 0.00 0.00 0.00 70 1014.0
20260905005608 72 356 0.0 0.0 0.00 0.00 0.00 71 1013.9
20260905004929 72 356 0.0 0.0 0.00 0.00 0.00 71 1013.8
20260905004248 0 357 0.0 0.0 0.00 0.00 0.00
20260905003501 0 355 0.0 0.0 0.00 0.00 0.00
20260905002641 0 360 0.0 0.0 0.00 0.00 0.00
20260905001939 72 357 0.0 0.0 0.00 0.00 0.00 70 1013.9
20260905001254 0 352 0.0 0.0 0.00 0.00 0.00
20260905000244 72 355 0.0 0.0 0.00 0.00 0.00 70 1013.8
20260904235603 0 356 0.0 0.0 0.00 0.00 0.00
20260904234200 0 355 0.0 0.0 0.00 0.00 0.00
20260904233225 73 356 0.0 0.0 0.00 0.00 0.00 67 1013.7
20260904232546 72 357 0.0 0.0 0.00 0.00 0.00 68 1013.6
20260904231905 72 354 0.0 0.0 0.00 0.00 0.00 67 1013.7
20260904231225 73 357 0.0 0.0 0.00 0.00 0.00 69 1013.6
20260904230555 73 360 0.0 0.0 0.00 0.00 0.00 67 1013.5
20260904225759 0 357 0.0 0.0 0.00 0.00 0.00
20260904224829 72 354 0.0 0.0 0.00 0.00 0.00 68 1013.4
20260904224147 72 359 0.0 0.0 0.00 0.00 0.00 68 1013.4
20260904223512 73 357 0.0 0.0 0.00 0.00 0.00 68 1013.3
20260904222836 72 355 0.0 0.0 0.00 0.00 0.00 67 1013.2
20260904222148 73 356 0.0 0.0 0.00 0.00 0.00 65 1013.1
20260904221507 73 356 0.0 0.0 0.00 0.00 0.00 64 1012.9
20260904220828 73 357 0.0 0.0 0.00 0.00 0.00 64 1012.9
20260904220147 73 356 0.0 0.0 0.00 0.00 0.00 64 1012.9
20260904215507 73 355 0.0 0.0 0.00 0.00 0.00 63 1012.7
20260904214827 73 358 0.0 0.0 0.00 0.00 0.00 64 1012.7
20260904214148 73 354 0.0 0.0 0.00 0.00 0.00 65 1012.7
20260904213507 73 353 0.0 0.0 0.00 0.00 0.00 64 1012.6
20260904212827 0 356 0.0 0.0 0.00 0.00 0.00
20260904211935 73 358 0.0 0.0 0.00 0.00 0.00 64 1012.6
20260904211245 72 358 0.0 0.0 0.00 0.00 0.00 66 1012.8
20260904210606 72 357 0.0 0.0 0.00 0.00 0.00 66 1013.1
20260904205925 73 357 0.0 0.0 0.00 0.00 0.00 64 1013.3
20260904205245 73 355 0.0 0.0 0.00 0.00 0.00 65 1013.2
20260904204606 73 356 0.0 0.0 0.00 0.00 0.00 64 1013.4
20260904203936 73 357 0.0 0.0 0.00 0.00 0.00 63 1013.5
20260904203245 73 360 0.0 0.0 0.00 0.00 0.00 65 1013.4
20260904202620 73 354 0.0 0.0 0.00 0.00 0.00 66 1013.4
20260904201818 0 353 0.0 0.0 0.00 0.00 0.00
20260904200918 0 0 0.0 0.0 0.00 0.00 0.00
20260904200132 73 355 0.0 6.0 0.00 0.00 0.00 64 1013.6
20260904195448 0 356 1.0 7.0 0.00 0.00 0.00
20260904194656 73 357 4.0 5.0 0.00 0.00 0.00 65 1013.7
20260904193749 0 360 0.0 6.0 0.00 0.00 0.00
20260904192958 73 357 2.0 7.0 0.00 0.00 0.00 65 1013.9
20260904192319 73 355 5.0 7.0 0.00 0.00 0.00 66 1014.0
20260904191641 73 356 0.0 7.0 0.00 0.00 0.00 66 1014.1
20260904190958 73 356 3.0 9.0 0.00 0.00 0.00 65 1014.2
20260904190318 0 358 3.0 5.0 0.00 0.00 0.00
20260904185528 0 357 7.0 8.0 0.00 0.00 0.00
20260904184738 73 355 4.0 10.0 0.00 0.00 0.00 62 1014.6
20260904184058 0 356 4.0 4.0 0.00 0.00 0.00
20260904183157 73 356 0.0 0.0 0.00 0.00 0.00 60 1014.8
20260904182516 74 358 0.0 0.0 0.00 0.00 0.00 58 1014.7
20260904181838 75 357 0.0 8.0 0.00 0.00 0.00 55 1014.7
20260904181158 0 357 1.0 8.0 0.00 0.00 0.00
20260904180406 76 356 0.0 0.0 0.00 0.00 0.00 53 1014.7
20260904175736 75 357 0.0 0.0 0.00 0.00 0.00 50 1014.8
20260904175046 0 360 0.0 0.0 0.00 0.00 0.00
20260904174230 75 356 0.0 4.0 0.00 0.00 0.00 49 1014.9
20260904173551 0 356 0.0 9.0 0.00 0.00 0.00
20260904172753 75 356 6.0 9.0 0.00 0.00 0.00 48 1015.0
20260904172110 77 355 0.0 5.0 0.00 0.00 0.00 49 1015.1
20260904171439 0 353 0.0 3.0 0.00 0.00 0.00
20260904170534 75 357 0.0 0.0 0.00 0.00 0.00 52 1015.4
20260904165848 75 358 0.0 0.0 0.00 0.00 0.00 53 1015.6
20260904165209 77 356 0.0 0.0 0.00 0.00 0.00 52 1015.6
20260904164530 74 356 0.0 0.0 0.00 0.00 0.00 55 1015.5
20260904163849 76 356 0.0 0.0 0.00 0.00 0.00 53 1015.6
20260904163208 0 355 0.0 0.0 0.00 0.00 0.00
20260904162419 0 358 0.0 0.0 0.00 0.00 0.00
20260904161628 0 360 0.0 7.0 0.00 0.00 0.00
20260904160834 0 354 4.0 7.0 0.00 0.00 0.00
20260904155756 0 355 0.0 3.0 0.00 0.00 0.00
20260904154519 75 355 0.0 0.0 0.00 0.00 0.00 55 1015.4
20260904153839 0 359 0.0 0.0 0.00 0.00 0.00
20260904153056 74 359 0.0 0.0 0.00 0.00 0.00 59 1015.3
20260904152410 73 358 0.0 4.0 0.00 0.00 0.00 57 1015.2
20260904151730 74 356 0.0 4.0 0.00 0.00 0.00 57 1015.3
20260904151105 74 358 0.0 4.0 0.00 0.00 0.00 56 1015.2
20260904150410 0 356 0.0 3.0 0.00 0.00 0.00
20260904145626 0 0 0.0 0.0 0.00 0.00 0.00
20260904144915 74 358 0.0 0.0 0.00 0.00 0.00 56 1015.2
20260904144235 76 357 0.0 0.0 0.00 0.00 0.00 54 1015.3
20260904143555 75 357 0.0 0.0 0.00 0.00 0.00 54 1015.2
20260904142848 0 355 0.0 0.0 0.00 0.00 0.00
20260904142057 0 357 0.0 0.0 0.00 0.00 0.00
20260904141201 0 356 0.0 4.0 0.00 0.00 0.00
20260904140201 74 356 0.0 0.0 0.00 0.00 0.00 56 1014.8
20260904135517 75 356 0.0 0.0 0.00 0.00 0.00 54 1014.7
20260904134826 0 358 0.0 0.0 0.00 0.00 0.00
20260904134044 73 356 0.0 0.0 0.00 0.00 0.00 57 1014.9
20260904133356 0 357 0.0 0.0 0.00 0.00 0.00
20260904132503 72 357 0.0 0.0 0.00 0.00 0.00 60 1014.9
20260904131813 0 356 0.0 0.0 0.00 0.00 0.00
20260904131024 72 356 0.0 0.0 0.00 0.00 0.00 60 1015.1
20260904130339 0 356 0.0 0.0 0.00 0.00 0.00
20260904125523 0 352 0.0 0.0 0.00 0.00 0.00
20260904124508 0 358 0.0 0.0 0.00 0.00 0.00
20260904123714 0 354 0.0 0.0 0.00 0.00 0.00
20260904122901 0 357 0.0 0.0 0.00 0.00 0.00
20260904122058 0 0 0.0 0.0 0.00 0.00 0.00
20260904121307 70 355 0.0 0.0 0.00 0.00 0.00 66 1015.1
20260904120637 71 357 0.0 0.0 0.00 0.00 0.00 68 1015.1
20260904115947 70 356 0.0 0.0 0.00 0.00 0.00 66 1015.1
20260904115307 71 358 0.0 0.0 0.00 0.00 0.00 65 1015.1
20260904114627 71 356 0.0 0.0 0.00 0.00 0.00 70 1014.9
20260904113947 71 357 0.0 0.0 0.00 0.00 0.00 72 1014.9
20260904113317 70 355 0.0 0.0 0.00 0.00 0.00 73 1014.8
20260904112628 0 356 0.0 0.0 0.00 0.00 0.00
20260904111724 69 357 0.0 0.0 0.00 0.00 0.00 76 1014.6
20260904111045 68 357 0.0 0.0 0.00 0.00 0.00 78 1014.7
20260904110405 68 356 0.0 0.0 0.00 0.00 0.00 76 1014.6
20260904105726 68 355 0.0 0.0 0.00 0.00 0.00 76 1014.6
20260904105046 68 355 0.0 0.0 0.00 0.00 0.00 73 1014.6
20260904104406 69 359 0.0 0.0 0.00 0.00 0.00 72 1014.5
20260904103726 68 355 0.0 0.0 0.00 0.00 0.00 73 1014.5
20260904103046 0 356 0.0 0.0 0.00 0.00 0.00
20260904102258 68 356 0.0 0.0 0.00 0.00 0.00 76 1014.5
20260904101618 69 356 0.0 0.0 0.00 0.00 0.00 76 1014.5
20260904100938 69 356 0.0 0.0 0.00 0.00 0.00 75 1014.6
20260904100259 0 358 0.0 0.0 0.00 0.00 0.00
20260904095358 69 358 0.0 0.0 0.00 0.00 0.00 75 1014.6
20260904094718 0 352 0.0 0.0 0.00 0.00 0.00
20260904093923 69 354 0.0 0.0 0.00 0.00 0.00 78 1014.5
20260904093243 69 357 0.0 0.0 0.00 0.00 0.00 79 1014.4
20260904092613 0 356 0.0 0.0 0.00 0.00 0.00
20260904091814 69 357 0.0 0.0 0.00 0.00 0.00 80 1014.3
20260904091134 69 357 0.0 0.0 0.00 0.00 0.00 79 1014.3
20260904090454 69 357 0.0 0.0 0.00 0.00 0.00 77 1014.3
20260904085814 70 357 0.0 3.0 0.00 0.00 0.00 76 1014.4
20260904085134 70 358 0.0 4.0 0.00 0.00 0.00 74 1014.4
20260904084455 70 355 0.0 4.0 0.00 0.00 0.00 77 1014.5
20260904083815 71 356 0.0 0.0 0.00 0.00 0.00 76 1014.5
20260904083027 71 357 0.0 0.0 0.00 0.00 0.00 73 1014.4
20260904082346 71 357 0.0 0.0 0.00 0.00 0.00 74 1014.2
20260904081707 0 357 0.0 0.0 0.00 0.00 0.00
20260904080917 70 358 0.0 0.0 0.00 0.00 0.00 74 1014.0
20260904080237 70 352 0.0 0.0 0.00 0.00 0.00 73 1014.0
20260904075607 0 357 0.0 0.0 0.00 0.00 0.00
20260904074740 71 355 0.0 0.0 0.00 0.00 0.00 72 1013.9
20260904074100 70 355 0.0 0.0 0.00 0.00 0.00 72 1013.7
20260904073420 0 356 0.0 0.0 0.00 0.00 0.00
20260904072631 71 357 0.0 0.0 0.00 0.00 0.00 75 1013.7
20260904071951 70 358 0.0 0.0 0.00 0.00 0.00 74 1013.7
20260904071311 0 357 0.0 0.0 0.00 0.00 0.00
20260904070520 0 355 0.0 0.0 0.00 0.00 0.00
20260904065508 71 358 0.0 0.0 0.00 0.00 0.00 73 1013.8
20260904064828 71 357 0.0 0.0 0.00 0.00 0.00 72 1013.8
20260904064148 71 358 0.0 0.0 0.00 0.00 0.00 73 1013.8
20260904063508 71 356 0.0 0.0 0.00 0.00 0.00 71 1013.8
20260904062828 71 357 0.0 0.0 0.00 0.00 0.00 70 1013.7
20260904062147 72 356 0.0 0.0 0.00 0.00 0.00 69 1013.7
20260904061514 0 355 0.0 0.0 0.00 0.00 0.00
20260904060721 0 359 0.0 0.0 0.00 0.00 0.00
20260904055925 71 357 0.0 0.0 0.00 0.00 0.00 75 1013.6
20260904055259 71 356 0.0 0.0 0.00 0.00 0.00 76 1013.6
20260904054605 71 355 0.0 0.0 0.00 0.00 0.00 80 1013.7
20260904053925 71 357 0.0 0.0 0.00 0.00 0.00 81 1013.7
20260904053244 70 355 0.0 0.0 0.00 0.00 0.00 81 1013.7
20260904052604 70 357 0.0 0.0 0.00 0.00 0.00 82 1013.7
20260904051924 70 357 0.0 0.0 0.00 0.00 0.00 83 1013.7
20260904051244 0 357 0.0 0.0 0.00 0.00 0.00
20260904050455 71 358 0.0 0.0 0.00 0.00 0.00 83 1013.9
20260904045442 0 356 0.0 0.0 0.00 0.00 0.00
20260904044318 72 358 0.0 0.0 0.00 0.00 0.00 84 1013.9
20260904043638 72 358 0.0 0.0 0.00 0.00 0.00 84 1013.8
20260904042958 0 356 0.0 0.0 0.00 0.00 0.00
20260904042205 73 356 0.0 0.0 0.00 0.00 0.00 83 1013.8
20260904041526 0 356 0.0 0.0 0.00 0.00 0.00
20260904040624 73 357 0.0 0.0 0.00 0.00 0.00 84 1013.9
20260904035944 73 356 0.0 0.0 0.00 0.00 0.00 84 1013.9
20260904035306 0 355 0.0 0.0 0.00 0.00 0.00
20260904034136 73 356 0.0 0.0 0.00 0.00 0.00 84 1013.9
20260904033457 73 358 0.0 0.0 0.00 0.00 0.00 82 1013.8
20260904032818 0 356 0.0 0.0 0.00 0.00 0.00